Tracking 20472 objects as of 28-Feb-2020
HD Live streaming from Space Station
objects crossing your sky now

SL-12 DEB

Track SL-12 DEB now!
10-day predictions


NORAD ID: 42981
Int'l Code: 2010-041W
Perigee: 491.4 km
Apogee: 17,810.5 km
Inclination: 65.4 °
Period: 320.8 minutes
Semi major axis: 15521 km
RCS: Unknown
Launch date: September 2, 2010
Source: Commonwealth of Independent States (former USSR) (CIS)
Launch site: TYURATAM MISSILE AND SPACE COMPLEX (TTMTR)

Note: This is SATELLITE DEBRIS
aabbcc
Your satellite tracking list
Your tracking list is empty




NASA's NSSDC Master Catalog

Two Line Element Set (TLE):
1 42981U 10041W   20055.57024900 -.00000100  00000-0 -64495-4 0  9994
2 42981  65.4146 200.8073 5578904  21.0050  13.7068  4.48934562 40147
Source of the keplerian elements: AFSPC